マクノート彗星

P/2007 H1 ( McNaught )

English version
Home page
Total 6,336 html files since Dec. 4, 1995
Updated on April 12, 2008

---------------------------------------------------------------------

・ プロフィール

発見日 2007年4月17日
発見光度 16.1等
発見者 R. H. McNaught (Siding Spring Survey)

・ 写真集

・ 軌道要素

The following orbital elements are taken from MPC 62270:

Epoch 2007 Aug. 8.0 TT = JDT 2454320.5
T 2007 Aug. 17.6392 TT                                  MPC
q   2.281008             (2000.0)            P               Q
n   0.1403199      Peri.  202.6091      +0.9695199      +0.2136998
a   3.667666       Node   144.3759      -0.1812914      +0.9547383
e   0.378076       Incl.   11.8740      -0.1648167      +0.2068988
P   7.02
From 1073 observations 2006 Apr. 25-2008 Feb. 8, mean residual 0".6.

・ 星図

・ 光度変化

        m1 = 5.7 + 5 logΔ + 20 log r

---------------------------------------------------------------------

軌道要素はMPCのEphemerides and Orbital Elementsに掲載されたものです。
星図は StellaNavigator Ver.2.0 for Windows (アストロアーツ 編著 / アスキー出版局刊) で作成したものです。
光度グラフはComet for Windowsで作成したものです。

---------------------------------------------------------------------

Copyright(C) 1995-2008 Seiichi Yoshida (comet@aerith.net). All rights reserved.